This demonstration page uses our WeatherBlox Daily Observations layout. Learn more.

Left ArrowRight Arrow

34.16533, -84.80231

Hourly Observations for April 20, 2016

Temp ( °F °C ) Dew Point ( °F °C ) Humidity (%) Winds ( mph kmh ) Pressure ( in mb ) Visibility ( mi km ) Precip ( " mm )
12:53 am 00:53 Clear 58 14.4 51 10.6 78 78 Calm 30.08 1019 10 16 0.00 0.00
1:53 am 01:53 Clear 55 12.8 52 11.1 90 90 Calm 30.07 1018 10 16 0.00 0.00
2:53 am 02:53 Clear 56 13.3 52 11.1 87 87 Calm 30.07 1018 10 16 0.00 0.00
3:53 am 03:53 Clear 57 13.9 52 11.1 83 83 Calm 30.07 1018 10 16 0.00 0.00
4:53 am 04:53 Clear 55 12.8 52 11.1 90 90 Calm 30.08 1019 10 16 0.00 0.00
5:53 am 05:53 Clear with Mist and Fog 54 12.2 52 11.1 93 93 Calm 30.08 1019 6 10 0.00 0.00
6:53 am 06:53 Clear 56 13.3 52 11.1 87 87 Calm 30.08 1019 10 16 0.00 0.00
7:53 am 07:53 Sunny 56 13.3 53 11.7 90 90 Calm 30.09 1019 7 11 0.00 0.00
8:53 am 08:53 Sunny 62 16.7 54 12.2 75 75 Calm 30.10 1019 9 14 0.00 0.00
9:53 am 09:53 Sunny 66 18.9 53 11.7 63 63 Calm 30.10 1019 10 16 0.00 0.00
10:53 am 10:53 Sunny 68 20 55 12.8 63 63 Calm 30.10 1019 10 16 0.00 0.00
11:53 am 11:53 Sunny 74 23.3 54 12.2 50 50 Calm 30.11 1020 10 16 0.00 0.00
12:53 pm 12:53 Sunny 81 27.2 49 9.4 33 33 Calm 30.09 1019 10 16 0.00 0.00
1:53 pm 13:53 Sunny 82 27.8 43 6.1 25 25 S 12 19 30.07 1018 10 16 0.00 0.00
2:53 pm 14:53 Sunny 82 27.8 44 6.7 26 26 E 5 7 30.05 1018 10 16 0.00 0.00
3:53 pm 15:53 Sunny 82 27.8 42 5.6 24 24 SSE 6 9 30.04 1017 10 16 0.00 0.00
4:53 pm 16:53 Sunny 82 27.8 43 6.1 25 25 SSE 12 19 30.02 1017 10 16 0.00 0.00
5:53 pm 17:53 Sunny 81 27.2 44 6.7 27 27 SSE 12 19 30.01 1016 10 16 0.00 0.00
6:53 pm 18:53 Sunny 78 25.6 46 7.8 32 32 SSE 9 15 30.01 1016 10 16 0.00 0.00
7:53 pm 19:53 Sunny 73 22.8 46 7.8 38 38 S 6 9 30.02 1017 10 16 0.00 0.00
8:53 pm 20:53 Clear 64 17.8 50 10 60 60 SSE 5 7 30.03 1017 10 16 0.00 0.00
9:53 pm 21:53 Clear 67 19.4 47 8.3 49 49 SSE 5 7 30.05 1018 10 16 0.00 0.00
10:53 pm 22:53 Clear 68 20 48 8.9 49 49 SE 5 7 30.06 1018 10 16 0.00 0.00
11:53 pm 23:53 Clear 66 18.9 49 9.4 54 54 SSE 5 7 30.06 1018 10 16 0.00 0.00

Powered by AerisWeather